Showing default

DROR-1, 64784

Orbit data source: Space-Track

DROR-1, 64784 is a payload satellite owned by ISA (IL) in GEO that was launched on Sun, 13 Jul 2025 UTC via an FALCON 9 launch vehicle from the Air Force Eastern Test Range (AFETR). Payload-class satellites include a variety of spacecraft equipped with specific instruments for various scientific and technological missions. These include communications satellites like Starlink; space stations such as the ISS; scientific satellites like the Hubble; Earth observation satellites from companies like Planet Labs, Umbra, and HawkEye 360; GPS; miniature CubeSats for education and research; and military/defense satellites.

Not visible in the next 10 days
Identifier
64784, 2025-148A
Orbit
GEO
Country
Flag of ILIL / ISRA
Related business
Manufacturer
IAI
Mission
Operational Civil Communications
Bus & Motor
AMOS-HP, S400
Mass
4,500 kg wet, ~2,500 kg dry
Launch date (UTC)
2025-07-13 (11 months ago)
Launch vehicle
FALCON 9
Launch site
Air Force Eastern Test Range (AFETR)
Object type
Payload
Rocket body
Debris
Shape & HBR
Box + 2 Pan, 22.5 m
Radar Cross Section
34.225 m²

Expand to show TLE details & history
Last TLE update: 14 hours ago

TLE from 14 hours ago
0 DROR-1
1 64784U 25148A   26171.39120382 -.00000039  00000-0  00000+0 0  9996
2 64784   0.0439  72.5487 0002642 318.5944  14.2794  1.00271314  3322
Epoch: 2026-06-20T09:23Z
TLE epoch observation values (Epoch: 2026-06-20T09:23:20.010Z)
Latitude
-0.00753°
Longitude
-3.99769°
Altitude
35,775.435 km
Speed
3.075 km/s
True Right ascension
03h 01m 46s
True Declination
0° 00' 27"
Sunlit
Object was in daylight at epoch
Visualization orbit readout
Latitude
Unknown
Longitude
Unknown
Altitude
Unknown
Speed
Unknown
Apparent Right ascension
Unknown
Apparent Declination
Unknown
Sunlit
N/A
Visualization observer readout
Local Sidereal Time
10:17:56
Azimuth
Unknown
Elevation
Unknown
Doppler factor
Unknown
Orbital elements
Apogee altitude
35,798.938 km
Perigee altitude
35,776.657 km
Semi-major axis
42,165.934 km
Eccentricity
0.00026
Inclination
0.0439°
RAAN
72.5487°
Arg. of periapsis
318.5944°
True anomaly
14.28687°
Mean anomaly
14.2794°
Eccentric anomaly
14.28313°
Mean motion
0.25067 °/min
Orbital period
1,436.16 mins
BSTAR
0
Loading maneuver chart data...
Computing Atmospheric mass density...
Loading historical data...
Loading historical data...
Loading historical data...
Loading historical data...
Loading historical data...
Loading historical data...
Loading historical data...
Other satellites on launch #148 in the year 2025 (2025-07-13 UTC)

Documentation

Showing up to 5 results
|